1
0
0
0
orb21231.2l.amsat
by ray.hoad@mypbmail.com
20 Aug '21
20 Aug '21
SB KEPS @ AMSAT $ORB21231.N 2Line Orbital Elements 21231.AMSAT HR AMSAT ORBITAL ELEMENTS FOR AMATEUR SATELLITES IN NASA FORMAT FROM WA5QGD FORT WORTH,TX August 19, 2021 BID: ORB21231.N DECODE 2-LINE ELSETS WITH THE FOLLOWING KEY: 1 AAAAAU 00 0 0 BBBBB.BBBBBBBB .CCCCCCCC 00000-0 00000-0 0 DDDZ 2 AAAAA EEE.EEEE FFF.FFFF GGGGGGG HHH.HHHH III.IIII JJ.JJJJJJJJKKKKKZ KEY: A-CATALOGNUM B-EPOCHTIME C-DECAY D-ELSETNUM E-INCLINATION F-RAAN G-ECCENTRICITY H-ARGPERIGEE I-MNANOM J-MNMOTION K-ORBITNUM Z-CHECKSUM TO ALL RADIO AMATEURS BT AO-07 1 07530U 74089B 21231.71736058 -.00000034 00000-0 71163-4 0 9999 2 07530 101.8594 206.1658 0011805 261.1104 271.6042 12.53649855139893 UO-11 1 14781U 84021B 21231.53543017 .00000080 00000-0 15834-4 0 9996 2 14781 97.5954 228.2781 0007205 227.2107 132.8502 14.83313277995280 LO-19 1 20442U 90005G 21231.32862255 -.00000003 00000-0 15614-4 0 9993 2 20442 98.7459 187.3831 0011426 341.9907 18.0870 14.32994203649835 HUBBLE 1 20580U 90037B 21231.57671095 .00000541 00000-0 21731-4 0 9991 2 20580 28.4710 7.3921 0002808 26.7064 28.7780 15.09707274520544 MET-2/21 1 22782U 93055A 21231.33442867 .00000041 00000-0 23357-4 0 9998 2 22782 82.5459 254.0007 0023652 113.9576 257.1508 13.83836813412227 AO-27 1 22825U 93061C 21231.55575128 .00000001 00000-0 18379-4 0 9998 2 22825 98.9163 250.7143 0007947 204.3514 155.7293 14.30121851455007 IO-26 1 22826U 93061D 21231.58114990 .00000002 00000-0 18623-4 0 9991 2 22826 98.9105 250.6431 0008708 191.4208 168.6778 14.30461797455259 FO-29 1 24278U 96046B 21231.44905659 -.00000007 00000-0 30730-4 0 9994 2 24278 98.5627 291.0625 0350088 346.6172 12.5861 13.53105040234767 NOAA-15 1 25338U 98030A 21231.65420997 .00000060 00000-0 43371-4 0 9990 2 25338 98.6790 259.6023 0011584 96.6916 263.5582 14.26053181210257 GO-32 1 25397U 98043D 21231.30523719 -.00000028 00000-0 71921-5 0 9995 2 25397 98.7739 176.6963 0000183 231.6687 128.4474 14.23713462200436 ISS 1 25544U 98067A 21231.85950031 .00001072 00000-0 27662-4 0 9997 2 25544 51.6440 27.8463 0001517 333.1303 175.6838 15.48918110298467 NO-44 1 26931U 01043C 21231.44666268 -.00000034 00000-0 18914-4 0 9995 2 26931 67.0511 117.8662 0005606 264.5427 95.5034 14.30628728 38201 SO-50 1 27607U 02058C 21231.72853776 .00000002 00000-0 20764-4 0 9996 2 27607 64.5555 144.8512 0048469 1.3845 358.7383 14.75776900 4053 CO-55 1 27844U 03031E 21231.57789503 .00000056 00000-0 44917-4 0 9995 2 27844 98.6808 238.8328 0008663 254.5925 105.4296 14.22326393940954 CO-57 1 27848U 03031J 21231.23805209 .00000044 00000-0 39623-4 0 9999 2 27848 98.6863 239.0587 0008532 271.0512 88.9688 14.21901370940739 RS-22 1 27939U 03042A 21231.81451054 .00000061 00000-0 19577-4 0 9996 2 27939 98.1488 8.4961 0014260 81.6908 278.5912 14.67011543956818 NOAA-18 1 28654U 05018A 21231.69690302 .00000076 00000-0 65037-4 0 9991 2 28654 98.9898 296.7997 0015343 103.5726 256.7156 14.12631030837468 CO-58 1 28895U 05043F 21231.30789944 .00000118 00000-0 31443-4 0 9996 2 28895 98.0669 3.2017 0016996 17.2758 342.9019 14.63945015843209 Falconsat-3 1 30776U 07006E 21231.59206415 .00004111 00000-0 97170-4 0 9992 2 30776 35.4347 54.2627 0001306 129.4962 230.5882 15.41369710802858 CO-65 1 32785U 08021C 21231.37707711 .00000231 00000-0 30274-4 0 9994 2 32785 97.6161 207.7957 0013678 148.6642 211.5393 14.88773193721533 AAUSAT2 1 32788U 08021F 21231.51141139 .00000713 00000-0 68948-4 0 9993 2 32788 97.5078 223.5370 0013087 62.2734 297.9814 14.95691289723287 DO-64 1 32789U 08021G 21231.40478673 .00001314 00000-0 86285-4 0 9990 2 32789 97.3729 264.3428 0009891 288.3871 71.6282 15.09259739726327 CO-66 1 32791U 08021J 21231.42730416 .00000533 00000-0 58573-4 0 9992 2 32791 97.5755 213.6920 0014635 113.5595 246.7163 14.91479852722160 RS-30 1 32953U 08025A 21231.72903466 .00000021 00000-0 80971-4 0 9995 2 32953 82.5057 11.5721 0019476 196.5706 163.4742 12.43103819600846 PRISM 1 33493U 09002B 21231.26226736 .00001298 00000-0 11580-3 0 9994 2 33493 98.1943 196.8532 0016907 79.9050 280.4078 14.97788482683728 NOAA-19 1 33591U 09005A 21231.66607713 .00000036 00000-0 44690-4 0 9996 2 33591 99.1815 253.9303 0013199 318.3822 41.6344 14.12489994645841 SRMSAT 1 37841U 11058D 21231.53461253 .00000314 00000-0 27162-4 0 9996 2 37841 19.9717 279.8153 0011653 267.1968 241.6050 14.10701146508555 HRBE 1 37855U 11061F 21231.52612146 .00000840 00000-0 47850-4 0 9993 2 37855 101.7141 187.6568 0165566 242.9947 115.4279 15.08016883535688 RS-40 1 38735U 12041C 21231.47754748 .00000007 00000-0 -18843-4 0 9995 2 38735 82.4746 93.8012 0016778 311.9557 48.0094 12.42583444411011 ZACUBE-1 1 39417U 13066B 21231.39595089 .00000287 00000-0 42093-4 0 9996 2 39417 97.5974 212.4774 0057474 316.0455 43.6194 14.81568714418392 GOMX-1 1 39430U 13066Q 21231.73620948 .00000159 00000-0 38206-4 0 9991 2 39430 97.8102 151.1686 0149004 275.7996 82.6250 14.59656732412276 LO-74 1 39440U 13066AA 21231.35185315 .00000272 00000-0 44410-4 0 9994 2 39440 97.6813 197.6102 0080712 32.4103 328.2028 14.76289288415700 AO-73 1 39444U 13066AE 21231.40881975 .00000342 00000-0 47894-4 0 9996 2 39444 97.5877 214.8649 0056304 305.8301 53.7689 14.82487744416762 SPROUT 1 39770U 14029E 21231.73310393 .00000667 00000-0 77703-4 0 9997 2 39770 97.9210 342.9740 0009104 8.8073 351.3332 14.88572635392750 DTUSAT-2 1 40030U 14033W 21231.72359347 .00000266 00000-0 34209-4 0 9993 2 40030 97.9150 158.9573 0011200 334.1190 25.9465 14.89047727389249 EO-80 1 40032U 14033Y 21231.55417638 .00000324 00000-0 40475-4 0 9991 2 40032 97.9155 158.7956 0011192 335.5039 24.5645 14.89006324388686 HODOYOSHI-1 1 40299U 14070B 21231.83585676 .00000852 00000-0 37035-4 0 9990 2 40299 97.2823 303.6939 0014277 120.4705 16.1394 15.24858213377077 FIREBIRD FU3 1 40377U 15003B 21231.37427320 .00001809 00000-0 68455-4 0 9997 2 40377 99.1077 25.8370 0115714 322.3772 36.9404 15.22877152362362 FIREBIRD FU4 1 40378U 15003C 21231.41422751 .00001799 00000-0 67986-4 0 9992 2 40378 99.1082 26.0368 0115797 322.0314 37.2793 15.22930128362378 GRIFEX 1 40379U 15003D 21231.67171957 .00001261 00000-0 54198-4 0 9995 2 40379 99.1040 15.1129 0127257 355.2336 4.7671 15.18415255361785 NO-84 1 40654U 15025D 21230.30268145 .00029801 00000-0 17784-3 0 1159 2 40654 54.9773 108.5971 0063920 227.7675 131.7932 15.74777499 16781 XW-2A 1 40903U 15049E 21231.87668170 .00003479 00000-0 73493-4 0 9990 2 40903 97.2314 286.1662 0013399 137.7271 277.0591 15.45777681332592 XW-2C 1 40906U 15049H 21231.83101914 .00000728 00000-0 40361-4 0 9999 2 40906 97.4882 233.4005 0013683 334.0634 147.1515 15.16878516327172 XW-2D 1 40907U 15049J 21231.87700096 .00001063 00000-0 56781-4 0 9996 2 40907 97.4868 233.2625 0012962 330.3036 148.4272 15.17219543327216 LILACSAT-2 1 40908U 15049K 21231.84940207 .00000456 00000-0 28332-4 0 9990 2 40908 97.5069 230.9858 0015309 346.5991 132.2976 15.14521126326828 XW-2E 1 40909U 15049L 21231.85804579 .00001502 00000-0 73373-4 0 9991 2 40909 97.4668 237.3334 0011682 314.5064 164.7231 15.19767699327567 XW-2F 1 40910U 15049M 21231.73862491 .00001459 00000-0 72365-4 0 9998 2 40910 97.4737 236.2981 0012803 314.6451 99.7484 15.19266966327332 XW-2B 1 40911U 15049N 21231.76162836 .00000969 00000-0 52185-4 0 9991 2 40911 97.4868 233.8211 0012863 332.0691 202.5377 15.17133663327085 DCBB 1 40912U 15049P 21231.83959582 .00001579 00000-0 72482-4 0 9992 2 40912 97.4450 240.7807 0012402 281.4664 201.6551 15.21837004327839 TW-1A 1 40928U 15051D 21231.64104464 .00005555 00000-0 11321-3 0 9994 2 40928 97.0742 255.0421 0011094 66.7694 80.3276 15.46564849331450 IO-86 1 40931U 15052B 21231.62573864 .00000657 00000-0 23494-5 0 9995 2 40931 5.9965 161.8143 0013463 219.7844 140.1448 14.76684159318655 ATHENOXAT-1 1 41168U 15077C 21231.45098561 .00002420 00000-0 86699-4 0 9997 2 41168 14.9893 157.7490 0011089 332.7411 175.1226 15.15948237314354 ChubuSat-2 1 41338U 16012B 21231.46192281 .00000400 00000-0 24198-4 0 9993 2 41338 31.0025 145.2261 0013481 37.9108 322.2475 15.00575153302077 ChubuSat-3 1 41339U 16012C 21231.81141641 .00000374 00000-0 22131-4 0 9992 2 41339 31.0115 140.1662 0013314 48.5590 311.6196 15.00719421302121 Horyu-4 1 41340U 16012D 21231.42244480 .00000615 00000-0 39270-4 0 9996 2 41340 31.0047 125.4254 0013513 78.4268 281.7884 15.01967306302269
[email protected]
